| time (UTC) | temp F | wind direction | speed MPH | gust MPH | rain 1hr in | rain 24hr in | rain mn in | humidity % | barometer mb |
| 20260504204509 | 49 | 337 | 4.0 | 13.0 | 0.00 | 0.00 | 0.00 | 46 | 1005.1 |
| 20260504203006 | 48 | 46 | 4.0 | 10.0 | 0.00 | 0.00 | 0.00 | 47 | 1005.0 |
| 20260504201504 | 48 | 53 | 5.0 | 14.0 | 0.00 | 0.00 | 0.00 | 47 | 1004.9 |
| 20260504200003 | 48 | 56 | 5.0 | 13.0 | 0.00 | 0.00 | 0.00 | 48 | 1004.8 |
| 20260504194501 | 48 | 45 | 4.0 | 13.0 | 0.00 | 0.00 | 0.00 | 50 | 1004.8 |
| 20260504193001 | 48 | 26 | 4.0 | 11.0 | 0.00 | 0.00 | 0.00 | 51 | 1004.8 |
| 20260504191502 | 48 | 64 | 4.0 | 12.0 | 0.00 | 0.00 | 0.00 | 49 | 1004.8 |
| 20260504190116 | 47 | 20 | 5.0 | 12.0 | 0.00 | 0.00 | 0.00 | 50 | 1004.8 |
| 20260504184631 | 48 | 62 | 3.0 | 14.0 | 0.00 | 0.00 | 0.00 | 49 | 1004.8 |
| 20260504183059 | 49 | 52 | 4.0 | 11.0 | 0.00 | 0.00 | 0.00 | 50 | 1004.7 |
| 20260504181559 | 49 | 37 | 6.0 | 11.0 | 0.00 | 0.00 | 0.00 | 47 | 1004.8 |
| 20260504180058 | 49 | 13 | 5.0 | 12.0 | 0.00 | 0.00 | 0.00 | 48 | 1004.8 |
| 20260504174556 | 50 | 62 | 5.0 | 12.0 | 0.00 | 0.00 | 0.00 | 46 | 1004.9 |
| 20260504173057 | 49 | 35 | 7.0 | 14.0 | 0.00 | 0.00 | 0.00 | 45 | 1004.9 |
| 20260504171600 | 48 | 10 | 4.0 | 12.0 | 0.00 | 0.00 | 0.00 | 48 | 1005.0 |
| 20260504081543 | 40 | 46 | 0.0 | 10.0 | 0.00 | 0.00 | 0.00 | 59 | 1003.6 |
| 20260504050018 | 44 | 243 | 2.0 | 7.0 | 0.00 | 0.00 | 0.00 | 53 | 1002.0 |
| 20260504044517 | 44 | 231 | 1.0 | 5.0 | 0.00 | 0.00 | 0.00 | 54 | 1002.0 |
| 20260504043016 | 44 | 248 | 2.0 | 5.0 | 0.00 | 0.00 | 0.00 | 54 | 1001.8 |
| 20260504041515 | 44 | 237 | 1.0 | 4.0 | 0.00 | 0.00 | 0.00 | 55 | 1001.9 |
| 20260504040015 | 44 | 219 | 1.0 | 5.0 | 0.00 | 0.00 | 0.00 | 56 | 1001.7 |
| 20260504034525 | 42 | 220 | 0.0 | 1.0 | 0.00 | 0.00 | 0.00 | 65 | 1001.6 |
| 20260504033024 | 43 | 238 | 0.0 | 1.0 | 0.00 | 0.00 | 0.00 | 63 | 1001.5 |
| 20260504031514 | 45 | 229 | 0.0 | 2.0 | 0.00 | 0.00 | 0.00 | 60 | 1001.4 |
| 20260504030014 | 46 | 205 | 0.0 | 0.0 | 0.00 | 0.00 | 0.00 | 56 | 1001.2 |
| 20260504024533 | 49 | 226 | 0.0 | 1.0 | 0.00 | 0.00 | 0.00 | 52 | 1001.0 |
| 20260504023012 | 50 | 174 | 1.0 | 2.0 | 0.00 | 0.00 | 0.00 | 50 | 1000.8 |
| 20260504021511 | 52 | 331 | 0.0 | 1.0 | 0.00 | 0.00 | 0.00 | 49 | 1000.6 |
| 20260504020011 | 54 | 128 | 0.0 | 0.0 | 0.00 | 0.00 | 0.00 | 43 | 1000.6 |
| 20260504014510 | 57 | 128 | 0.0 | 2.0 | 0.00 | 0.00 | 0.00 | 39 | 1000.6 |
| 20260504013014 | 59 | 144 | 0.0 | 2.0 | 0.00 | 0.00 | 0.00 | 34 | 1000.7 |
| 20260504011508 | 63 | 151 | 0.0 | 8.0 | 0.00 | 0.00 | 0.00 | 27 | 1000.8 |
| 20260504010007 | 64 | 158 | 3.0 | 15.0 | 0.00 | 0.00 | 0.00 | 24 | 1000.8 |
| 20260504004510 | 67 | 33 | 1.0 | 8.0 | 0.00 | 0.00 | 0.00 | 25 | 1001.0 |
| 20260504003005 | 67 | 12 | 3.0 | 16.0 | 0.00 | 0.00 | 0.00 | 25 | 1000.9 |
| 20260504001504 | 68 | 176 | 3.0 | 10.0 | 0.00 | 0.00 | 0.00 | 21 | 1001.1 |
| 20260504000002 | 69 | 266 | 2.0 | 9.0 | 0.00 | 0.00 | 0.00 | 20 | 1001.1 |
| 20260503234502 | 68 | 231 | 3.0 | 9.0 | 0.00 | 0.00 | 0.00 | 20 | 1001.3 |
| 20260503233101 | 68 | 146 | 0.0 | 6.0 | 0.00 | 0.00 | 0.00 | 22 | 1001.3 |
| 20260503231559 | 68 | 47 | 3.0 | 13.0 | 0.00 | 0.00 | 0.00 | 19 | 1001.4 |
| 20260503230112 | 68 | 129 | 0.0 | 13.0 | 0.00 | 0.00 | 0.00 | 24 | 1001.7 |
| 20260503224554 | 68 | 152 | 1.0 | 7.0 | 0.00 | 0.00 | 0.00 | 25 | 1001.7 |
| 20260503223057 | 67 | 205 | 4.0 | 13.0 | 0.00 | 0.00 | 0.00 | 25 | 1001.9 |
| 20260503221554 | 67 | 140 | 4.0 | 10.0 | 0.00 | 0.00 | 0.00 | 24 | 1002.4 |
| 20260503220051 | 67 | 298 | 2.0 | 8.0 | 0.00 | 0.00 | 0.00 | 18 | 1002.5 |
| 20260503214547 | 68 | 77 | 1.0 | 13.0 | 0.00 | 0.00 | 0.00 | 24 | 1002.7 |
| 20260503213046 | 67 | 267 | 8.0 | 14.0 | 0.00 | 0.00 | 0.00 | 20 | 1003.0 |
| 20260503211544 | 66 | 136 | 5.0 | 10.0 | 0.00 | 0.00 | 0.00 | 17 | 1003.0 |
| 20260503210041 | 66 | 60 | 2.0 | 9.0 | 0.00 | 0.00 | 0.00 | 21 | 1003.4 |